Weather History for KFLG - June, 2014

Change the Weather History Date:

Friday, June 20, 2014

  Actual Average Record
Temperature  
Mean Temperature 62 °F 61 °F  
Max Temperature 83 °F 79 °F 92 °F (1936)
Min Temperature 41 °F 43 °F 30 °F (1979)
Degree Days  
Heating Degree Days 3 4  
Month to date heating degree days 73 139  
Since 1 July heating degree days 6492 6912  
Cooling Degree Days 0 1  
Month to date cooling degree days 2 3  
Year to date cooling degree days 2 3  
Growing Degree Days 12 (Base 50)    
Moisture  
Dew Point 23 °F    
Average Humidity 28    
Maximum Humidity 45    
Minimum Humidity 10    
Precipitation  
Precipitation 0.00 in 0.01 in 0.32 in (1925)
Month to date precipitation 0.00 0.20  
Year to date precipitation 3.21 8.31  
Snow  
Snow 0.00 in 0.00 in 0.00 in (2002)
Month to date snowfall 0.0 0.1  
Since 1 July snowfall 44.4 101.8  
Snow Depth 0.00 in    
Sea Level Pressure  
Sea Level Pressure 29.97 in    
Wind  
Wind Speed 7 mph (SW)    
Max Wind Speed 23 mph    
Max Gust Speed 30 mph    
Visibility 10 miles    
Events      
T = Trace of Precipitation, MM = Missing Value Source: NWS Daily Summary

Daily Weather History Graph

Daily Weather History Graph

Search for Another Location

Airport or City:

Trip Planner

Search our weather history database for the weather conditions in past years. The results will help you decide how hot, cold, wet, or windy it might be!

Date:

Astronomy

Jun. 20, 2014 Rise Set
Actual Time 5:12 AM MST 7:44 PM MST
Civil Twilight 4:42 AM MST 8:13 PM MST
Nautical Twilight 4:05 AM MST 8:50 PM MST
Astronomical Twilight 3:25 AM MST 9:31 PM MST
Moon 12:40 AM MST (6/20) 1:34 PM MST (6/20)
Length of Visible Light 15h 31m
Length of Day
14h 31m
Last Quarter, 39% of the Moon is Illuminated
Jun 20
Last Quarter
Jun 27
New
Jul 5
First Quarter
Jul 12
Full
Jul 18
Last Quarter

Hourly Weather History & Observations

Time (MST) Temp. Dew Point Humidity Pressure Visibility Wind Dir Wind Speed Gust Speed Precip Events Conditions
12:57 AM 46.0 °F 23.0 °F 40% 30.00 in 10.0 mi Calm Calm - N/A   Clear
1:57 AM 44.1 °F 24.1 °F 45% 29.99 in 10.0 mi Calm Calm - N/A   Clear
2:57 AM 44.1 °F 23.0 °F 43% 29.99 in 10.0 mi Calm Calm - N/A   Clear
3:57 AM 43.0 °F 23.0 °F 45% 30.01 in 10.0 mi Calm Calm - N/A   Clear
4:57 AM 42.1 °F 23.0 °F 47% 30.01 in 10.0 mi Calm Calm - N/A   Clear
5:57 AM 44.1 °F 24.1 °F 45% 30.02 in 10.0 mi Calm Calm - N/A   Clear
6:57 AM 57.9 °F 27.0 °F 31% 29.98 in 10.0 mi Calm Calm - N/A   Clear
7:57 AM 69.1 °F 23.0 °F 18% 29.96 in 10.0 mi East 4.6 mph - N/A   Clear
8:57 AM 73.9 °F 21.0 °F 14% 29.99 in 10.0 mi Variable 4.6 mph - N/A   Clear
9:57 AM 77.0 °F 26.1 °F 15% 29.99 in 10.0 mi SSW 19.6 mph 25.3 mph N/A   Clear
10:57 AM 77.0 °F 28.9 °F 17% 30.01 in 10.0 mi WSW 12.7 mph 29.9 mph N/A   Clear
11:57 AM 77.0 °F 19.9 °F 12% 30.02 in 10.0 mi SW 16.1 mph 25.3 mph N/A   Clear
12:57 PM 80.1 °F 21.0 °F 11% 29.99 in 10.0 mi WSW 15.0 mph 19.6 mph N/A   Clear
1:57 PM 81.0 °F 21.0 °F 11% 29.97 in 10.0 mi North - - N/A   Clear
2:57 PM 81.0 °F 21.0 °F 11% 29.95 in 10.0 mi SW 11.5 mph 24.2 mph N/A   Clear
3:48 PM 81.0 °F 21.0 °F 11% 30.21 in 10.0 mi Variable 6.9 mph 27.6 mph N/A   Clear
3:57 PM 82.0 °F 19.9 °F 10% 29.93 in 10.0 mi SSW 16.1 mph 23.0 mph N/A   Clear
4:57 PM 82.0 °F 23.0 °F 11% 29.92 in 10.0 mi WSW 15.0 mph 19.6 mph N/A   Clear
5:57 PM 79.0 °F 24.1 °F 13% 29.91 in 10.0 mi SW 11.5 mph 20.7 mph N/A   Clear
6:57 PM 77.0 °F 23.0 °F 13% 29.88 in 10.0 mi WSW 9.2 mph - N/A   Clear
7:57 PM 73.0 °F 23.0 °F 15% 29.87 in 10.0 mi WSW 6.9 mph - N/A   Clear
8:57 PM 64.0 °F 24.1 °F 22% 29.89 in 10.0 mi SW 5.8 mph - N/A   Clear
9:57 PM 69.1 °F 23.0 °F 18% 29.87 in 10.0 mi West 6.9 mph - N/A   Clear
10:57 PM 64.9 °F 24.1 °F 21% 29.89 in 10.0 mi Variable 4.6 mph - N/A   Clear
11:57 PM 62.1 °F 24.1 °F 23% 29.89 in 10.0 mi Calm Calm - N/A   Clear